Regional Weather Roundup
Issued by NWS

Home | Current Version | Previous Version | Graphics & Text | Print | Product List | Glossary On
Versions: 1 2 3 4 5 6 7 8 9 10 11 12 13 14 15 16 17 18 19 20 21 22 23 24 25 26 27 28 29 30 31 32 33 34 35 36 37 38 39 40 41 42 43 44 45 46 47 48 49 50
817
ASUS43 KOAX 231110
RWRNE

WEATHER ROUNDUP FOR NEBRASKA
NATIONAL WEATHER SERVICE OMAHA NE
500 AM CST MON JAN 23 2017

NOTES: SATELLITE DATA IS BEING USED TO AUGMENT CLOUD COVER ABOVE
       12000 FEET.
       "FAIR" INDICATES FEW OR NO CLOUDS BELOW 12,000 FEET WITH NO
       SIGNIFICANT WEATHER AND/OR OBSTRUCTIONS TO VISIBILITY.

  * THESE STATIONS DO NOT REPORT WEATHER SUCH AS RAIN...SNOW OR FOG.

NEZ001>004-019>022-054>056-231200-
NEBRASKA PANHANDLE

CITY           SKY/WX    TMP DP  RH WIND       PRES   REMARKS
SCOTTSBLUFF    CLOUDY    27  21  78 E5        29.72F WCI  22
ALLIANCE       CLOUDY    25  20  81 SE7       29.70F WCI  17
CHADRON        MOCLDY    20  16  84 W5        29.71S WCI  13
KIMBALL        CLOUDY    32  23  68 S5        29.68F WCI  27
SIDNEY         CLOUDY    32  22  66 S9        29.71F WCI  24
$$

NEZ057>060-069>072-079>082-231200-
SOUTHWEST NEBRASKA

CITY           SKY/WX    TMP DP  RH WIND       PRES   REMARKS
NORTH PLATTE   CLEAR     21  18  88 CALM      29.80F
IMPERIAL       CLOUDY    30  25  81 SE6       29.77F WCI  24
LEXINGTON      PTCLDY    27  24  91 CALM      29.82F
MCCOOK         PTCLDY    23  22  96 W5        29.82F WCI  17
OGALLALA       MOCLDY    26  24  90 CALM      29.78R
$$

NEZ005>010-023>029-035>040-094-231200-
NORTH CENTRAL NEBRASKA

CITY           SKY/WX    TMP DP  RH WIND       PRES   REMARKS
VALENTINE      CLOUDY    17  14  88 E5        29.78F WCI  10
AINSWORTH      CLOUDY    18  18  98 E5        29.79F WCI  11
BROKEN BOW     PTCLDY    27  25  92 CALM      29.80F
O`NEILL        CLOUDY    26  26  99 CALM      29.84F FOG
ORD            CLEAR     21  18  88 E5        29.84F WCI  15
THEDFORD       CLOUDY    23  22  94 CALM      29.78F
$$

NEZ041-046>049-061>064-073>077-083>087-231200-
SOUTH CENTRAL NEBRASKA

CITY           SKY/WX    TMP DP  RH WIND       PRES   REMARKS
GRAND ISLAND   CLEAR     22  21  96 CALM      29.87F
AURORA         PTCLDY    26  26  99 E5        29.87F WCI  20
HASTINGS       PTCLDY    28  25  88 CALM      29.87S
HEBRON         CLOUDY    25  25 100 CALM      29.90R
HOLDREGE       CLOUDY    28  26  90 CALM      29.83F
KEARNEY *      CLOUDY    27  25  93 CALM      29.83F
YORK           PTCLDY    27  27 100 NE9       29.88F FOG     WCI  17
$$

NEZ011>018-030>034-042>045-231200-
NORTHEAST NEBRASKA

CITY           SKY/WX    TMP DP  RH WIND       PRES   REMARKS
NORFOLK        CLOUDY    29  25  85 NE7       29.86F WCI  22
ALBION         CLOUDY    27  24  89 NE3       29.87S FOG
BLAIR          CLOUDY    32  28  87 NW5       29.88F WCI  27
FREMONT        CLOUDY    32  30  93 CALM      29.89F
TEKAMAH        CLOUDY    32  28  85 N8        29.89F WCI  25
WAYNE          CLOUDY    31  28  89 N8        29.88S WCI  24
$$

NEZ050>053-065>068-078-088>093-231200-
SOUTHEAST NEBRASKA

CITY           SKY/WX    TMP DP  RH WIND       PRES   REMARKS
LINCOLN        CLOUDY    29  27  92 W3        29.92F
OMAHA EPPLEY   CLOUDY    32  26  78 N10       29.89F WCI  24
BEATRICE       FOG       29  28  99 NE6       29.90S VSB 1   WCI  22
FALLS CITY     CLOUDY    29  28  96 CALM      29.90F
NEBRASKA CITY  CLOUDY    31  28  89 NW7       29.90F WCI  24
PLATTSMOUTH    CLOUDY    31  26  81 N8        29.90S WCI  24
$$

NEZ044-045-051>053-067-231200-
OMAHA AREA

CITY           SKY/WX    TMP DP  RH WIND       PRES   REMARKS
OMAHA EPPLEY   CLOUDY    32  26  78 N10       29.89F WCI  24
BLAIR          CLOUDY    32  28  87 NW5       29.88F WCI  27
FREMONT        CLOUDY    32  30  93 CALM      29.89F
MILLARD        CLOUDY    34  29  83 N5        29.91R WCI  30
OFFUTT AFB     CLOUDY    32  32  99 N5        29.90F WCI  27
PLATTSMOUTH    CLOUDY    31  26  81 N8        29.90S WCI  24
WAHOO          CLOUDY    32  28  88 N6        29.90F WCI  26
$$




USA.gov is the U.S. government's official web portal to all federal, state and local government web resources and services.